User: anonymous   Login
Location: Caltech
(34.1382°N, 118.1253°W)
Time: 04:10:06
(UTC-07:00)
Language:

Cosmos 1606 - Orbit

View from above orbital plane
View from above orbital plane
View from above satellite
View from above satellite

Ground track
Ground track

The orbit data is extracted from the following two-line orbital elements,

1 15369U 84111A   14304.68578941  .00004164  00000-0  24571-3 0  6645
2 15369 082.5292 344.2719 0019232 343.1770 016.8819 15.11139002635264
Epoch (UTC): 31 October 2014 16:27:32
Eccentricity: 0.0019232
inclination: 82.5292°
perigee height: 519 km
apogee height: 546 km
right ascension of ascending node: 344.2719°
argument of perigee: 343.1770°
revolutions per day: 15.11139002
mean anomaly at epoch: 16.8819°
orbit number at epoch: 63526

The dashed part of the orbit path shows where the satellite is in the earth's shadow,  

DLR